Home > Weather > Ponoka > Past weeks

Flag for Canada Past Weather in Ponoka, Alberta, Canada — Yesterday and Last 2 Weeks

Now
43 °F

Passing clouds.


Feels Like: 37 °F
Forecast: 38 / 62 °F
Wind: 9 mph from West

Location: Red Deer

Current Time: May 31, 2016 at 5:58:12 AM

Latest Report: May 31, 2016 at 5:00 AM


Visibility: 15 mi

Pressure: 30.30 "Hg (27.46 "Hg at 804m altitude)

Humidity: 87%

Dew Point: 39 °F

Location of PonokaLocation

Past Weather in Ponoka — Graph

°F

Ponoka Temperature Yesterday

Maximum temperature yesterday: 55 °F (at 3:00 PM)
Minimum temperature yesterday: 43 °F (at 7:00 AM)
Average temperature yesterday: 48 °F

High & Low Weather Summary for the Past Weeks

 TemperatureHumidityPressure
High75 °F (May 18, 2:00 PM)100% (May 22, 4:00 AM)30.32 "Hg (May 22, 4:00 AM)
Low32 °F (May 20, 7:00 AM)16% (May 16, 4:00 PM)29.52 "Hg (May 22, 11:00 AM)
Average50 °F73%29.90 "Hg
* Reported May 16 4:00 AM — May 31 4:00 AM, Ponoka, Weather by CustomWeather, © 2016

Note: Actual official high and low records may vary slightly from our data, if they occured in-between our weather recording intervals... More about our weather records

Advertising

Ponoka Weather History for the Previous 24 Hours

Scroll right to see more
 ConditionsComfort  
Time TempWeatherWind HumidityBarometerVisibility
4:00 AM
Tue, May 31
41 °FPassing clouds.6 mph87%30.31 "Hg15 mi
3:00 AM41 °FPassing clouds.6 mph87%30.30 "Hg15 mi
2:00 AM43 °FPassing clouds.6 mph87%30.30 "Hg15 mi
1:00 AM43 °FPassing clouds.6 mph87%30.31 "Hg15 mi
12:00 AM43 °FPartly cloudy.3 mph87%30.32 "Hg15 mi
11:00 PM
Mon, May 30
45 °FPassing clouds.5 mph81%30.32 "Hg15 mi
10:00 PM46 °FPartly sunny.8 mph76%30.30 "Hg15 mi
9:00 PM50 °FBroken clouds.14 mph67%30.28 "Hg15 mi
8:00 PM52 °FScattered clouds.15 mph62%30.27 "Hg15 mi
7:00 PM54 °FBroken clouds.17 mph63%30.25 "Hg15 mi
6:00 PM50 °FPartly sunny.13 mph76%30.25 "Hg15 mi
5:00 PM55 °FBroken clouds.16 mph55%30.23 "Hg15 mi
4:00 PM55 °FBroken clouds.17 mph55%30.22 "Hg15 mi
3:00 PM55 °FBroken clouds.21 mph51%30.20 "Hg15 mi
2:00 PM54 °FBroken clouds.22 mph51%30.21 "Hg15 mi
1:00 PM52 °FBroken clouds.22 mph58%30.20 "Hg15 mi
12:00 PM50 °FSprinkles. Partly sunny.20 mph71%30.21 "Hg15 mi
11:00 AM48 °FBroken clouds.21 mph76%30.19 "Hg15 mi
10:00 AM45 °FBroken clouds.21 mph81%30.18 "Hg15 mi
9:00 AM45 °FMostly cloudy.21 mph76%30.17 "Hg15 mi
8:00 AM43 °FMore clouds than sun.15 mph81%30.16 "Hg15 mi
7:00 AM43 °FBroken clouds.14 mph81%30.13 "Hg15 mi
6:00 AM45 °FPassing clouds.14 mph81%30.13 "Hg15 mi
5:00 AM45 °FOvercast.15 mph81%30.10 "Hg15 mi
Weather by CustomWeather, © 2016

See weather overviewHow to use our weather pages